User: anonymous   Login
Location: Pella
(41.4080°N, 92.9160°W)
Time: 09:41:22
(UTC-05:00)
Language:

Iridium 91 - Orbit

View from above orbital plane
View from above orbital plane
View from above satellite
View from above satellite

Ground track
Ground track

The orbit data is extracted from the following two-line orbital elements,

1 27372U 02005A   14296.49362132  .00000448  00000-0  15280-3 0  5407
2 27372 086.3969 332.1991 0002999 127.7477 005.7482 14.34220395672921
Epoch (UTC): 23 October 2014 11:50:48
Eccentricity: 0.0002999
inclination: 86.3969°
perigee height: 775 km
apogee height: 780 km
right ascension of ascending node: 332.1991°
argument of perigee: 127.7477°
revolutions per day: 14.34220395
mean anomaly at epoch: 5.7482°
orbit number at epoch: 67292

The dashed part of the orbit path shows where the satellite is in the earth's shadow,  

DLR